This is the latest recevied weather packets stored in our database for station/object IT9FBN-3. If no packets are shown the sender has not sent any weather packets the latest 10 day(s).
| Time | Temp. | Humidity | Pressure | Rain* | Wind** | Luminosity | Snow |
|---|---|---|---|---|---|---|---|
| 1777721105 | 16.67° C | 51% | 1022 hPa | 0 mm | - | - | - |
| 1777720804 | 16.67° C | 50% | 1022 hPa | 0 mm | - | - | - |
| 1777720504 | 16.67° C | 50% | 1022.1 hPa | 0 mm | - | - | - |
| 1777720204 | 16.67° C | 51% | 1022.2 hPa | 0 mm | - | - | - |
| 1777719904 | 16.67° C | 49% | 1022.3 hPa | 0 mm | - | - | - |
| 1777719605 | 16.67° C | 49% | 1022.3 hPa | 0 mm | - | - | - |
| 1777719304 | 16.67° C | 50% | 1022.4 hPa | 0 mm | - | - | - |
| 1777719004 | 16.67° C | 49% | 1022.4 hPa | 0 mm | - | - | - |
| 1777718705 | 16.67° C | 47% | 1022.4 hPa | 0 mm | - | - | - |
| 1777718404 | 17.22° C | 46% | 1022.4 hPa | 0 mm | - | - | - |
| 1777718105 | 16.67° C | 47% | 1022.4 hPa | 0 mm | - | - | - |
| 1777717805 | 16.67° C | 48% | 1022.4 hPa | 0 mm | - | - | - |
| 1777717505 | 16.11° C | 47% | 1022.4 hPa | 0 mm | - | - | - |
| 1777717205 | 16.11° C | 47% | 1022.4 hPa | 0 mm | - | - | - |
| 1777716904 | 16.11° C | 47% | 1022.3 hPa | 0 mm | - | - | - |
| 1777716604 | 16.11° C | 47% | 1022.5 hPa | 0 mm | - | - | - |
| 1777716304 | 16.11° C | 46% | 1022.4 hPa | 0 mm | - | - | - |
| 1777716005 | 16.11° C | 45% | 1022.4 hPa | 0 mm | - | - | - |
| 1777715705 | 16.67° C | 46% | 1022.4 hPa | 0 mm | - | - | - |
| 1777715404 | 16.11° C | 47% | 1022.4 hPa | 0 mm | - | - | - |
| 1777715105 | 16.11° C | 48% | 1022.4 hPa | 0 mm | - | - | - |
| 1777714804 | 15.56° C | 45% | 1022.4 hPa | 0 mm | - | - | - |
| 1777714505 | 16.11° C | 46% | 1022.4 hPa | 0 mm | - | - | - |
| 1777714205 | 16.11° C | 49% | 1022.3 hPa | 0 mm | - | - | - |
| 1777713904 | 16.11° C | 49% | 1022.2 hPa | 0 mm | - | - | - |
* Rain latest hour (hover to see other rain measurements)
** Current wind speed in m/s (hover to see current wind gust speed)